GFSMA_prec_precacc12_156.txt.gz
Total_Precipitation_Accumulation
0.01 0.02 0.02 0.04 0.05 0.09 0.12 0.15 0.15 0.20 0.25 0.31 0.22 0.12 0.02 0.00 0.01 0.01 0.00 0.00 0.00 0.01 0.08 0.04 0.03 0.00 0.00 0.00 0.00 0.02 0.02 0.06 0.08 0.13 0.18 0.15 0.12 0.12 0.07 0.09 0.05 0.05 0.02
0.00 0.02 0.05 0.07 0.07 0.09 0.13 0.14 0.11 0.11 0.13 0.21 0.23 0.22 0.12 0.06 0.02 0.00 0.00 0.00 0.01 0.00 0.04 0.10 0.05 0.01 0.00 0.00 0.00 0.01 0.02 0.02 0.04 0.08 0.10 0.12 0.09 0.05 0.03 0.01 0.00 0.01 0.02
0.00 0.00 0.00 0.04 0.09 0.07 0.09 0.11 0.12 0.12 0.10 0.11 0.15 0.21 0.19 0.15 0.08 0.03 0.00 0.00 0.00 0.00 0.00 0.01 0.07 0.14 0.08 0.03 0.04 0.01 0.01 0.00 0.01 0.02 0.03 0.03 0.02 0.00 0.00 0.00 0.00 0.01 0.01
0.00 0.00 0.00 0.00 0.05 0.13 0.13 0.09 0.06 0.09 0.10 0.09 0.11 0.15 0.22 0.20 0.13 0.05 0.04 0.00 0.00 0.00 0.00 0.00 0.01 0.13 0.13 0.06 0.04 0.01 0.01 0.01 0.00 0.01 0.01 0.00 0.00 0.00 0.00 0.00 0.00 0.00 0.00
0.00 0.00 0.00 0.00 0.01 0.08 0.19 0.15 0.08 0.06 0.07 0.08 0.10 0.13 0.20 0.18 0.20 0.16 0.09 0.06 0.01 0.01 0.00 0.00 0.00 0.01 0.06 0.06 0.06 0.05 0.03 0.02 0.00 0.01 0.01 0.00 0.00 0.00 0.00 0.00 0.00 0.00 0.00
0.00 0.00 0.00 0.00 0.00 0.02 0.08 0.20 0.18 0.15 0.12 0.09 0.07 0.08 0.16 0.25 0.25 0.23 0.15 0.07 0.05 0.01 0.00 0.01 0.00 0.00 0.01 0.05 0.06 0.09 0.03 0.03 0.02 0.01 0.02 0.01 0.00 0.00 0.00 0.00 0.00 0.00 0.00
0.00 0.00 0.00 0.01 0.00 0.01 0.02 0.07 0.20 0.21 0.28 0.33 0.34 0.24 0.15 0.23 0.28 0.28 0.23 0.15 0.14 0.03 0.03 0.01 0.07 0.01 0.00 0.01 0.01 0.03 0.05 0.04 0.05 0.04 0.04 0.01 0.00 0.00 0.00 0.00 0.00 0.00 0.00
0.00 0.00 0.01 0.01 0.01 0.01 0.01 0.01 0.07 0.27 0.58 0.80 0.84 0.58 0.39 0.41 0.30 0.29 0.29 0.25 0.16 0.08 0.06 0.03 0.02 0.03 0.01 0.00 0.00 0.00 0.02 0.04 0.05 0.07 0.10 0.04 0.01 0.00 0.00 0.00 0.00 0.00 0.00
0.00 0.01 0.01 0.02 0.01 0.01 0.01 0.01 0.02 0.24 0.69 0.83 0.86 1.10 1.04 0.72 0.59 0.39 0.29 0.28 0.42 0.52 0.42 0.20 0.05 0.06 0.05 0.02 0.00 0.00 0.01 0.02 0.06 0.07 0.08 0.04 0.02 0.01 0.00 0.00 0.00 0.00 0.00
0.00 0.01 0.01 0.02 0.02 0.02 0.02 0.01 0.01 0.06 0.48 0.98 1.19 0.87 0.60 0.51 0.44 0.40 0.39 0.39 0.33 0.50 0.79 1.21 0.61 0.15 0.13 0.06 0.04 0.01 0.00 0.00 0.01 0.02 0.06 0.06 0.03 0.01 0.00 0.00 0.00 0.00 0.00
0.00 0.01 0.02 0.02 0.02 0.03 0.03 0.02 0.02 0.03 0.04 0.10 0.28 0.61 1.00 0.90 0.51 0.27 0.21 0.17 0.18 0.18 0.24 0.26 0.47 0.31 0.21 0.14 0.06 0.05 0.02 0.01 0.00 0.00 0.02 0.04 0.05 0.04 0.01 0.00 0.00 0.00 0.00
0.01 0.01 0.01 0.02 0.02 0.02 0.02 0.02 0.02 0.03 0.03 0.04 0.13 0.24 0.25 0.33 0.47 0.55 0.40 0.23 0.15 0.09 0.09 0.11 0.15 0.21 0.19 0.15 0.06 0.05 0.03 0.06 0.03 0.01 0.01 0.01 0.01 0.03 0.04 0.01 0.00 0.00 0.00
0.01 0.01 0.01 0.01 0.02 0.02 0.02 0.02 0.02 0.03 0.04 0.05 0.12 0.16 0.22 0.24 0.17 0.17 0.21 0.24 0.26 0.20 0.18 0.18 0.16 0.17 0.17 0.16 0.09 0.11 0.15 0.12 0.11 0.12 0.06 0.01 0.03 0.04 0.04 0.08 0.06 0.04 0.01
0.03 0.02 0.01 0.01 0.01 0.02 0.02 0.03 0.04 0.04 0.05 0.08 0.16 0.38 0.34 0.34 0.39 0.38 0.26 0.24 0.23 0.19 0.21 0.19 0.21 0.27 0.28 0.30 0.29 0.41 0.40 0.34 0.31 0.32 0.28 0.13 0.05 0.03 0.08 0.09 0.14 0.16 0.15
0.03 0.02 0.02 0.02 0.02 0.02 0.04 0.04 0.05 0.04 0.04 0.09 0.13 0.20 0.27 0.46 0.47 0.52 0.60 0.54 0.42 0.29 0.19 0.14 0.29 0.45 0.46 0.42 0.39 0.35 0.28 0.24 0.30 0.28 0.27 0.19 0.11 0.08 0.10 0.11 0.13 0.13 0.14
0.02 0.02 0.03 0.05 0.04 0.06 0.07 0.12 0.10 0.08 0.08 0.04 0.04 0.11 0.25 0.54 0.70 0.72 0.75 0.76 0.83 0.70 0.51 0.49 0.51 0.32 0.32 0.34 0.45 0.47 0.35 0.26 0.29 0.25 0.18 0.12 0.06 0.05 0.06 0.07 0.07 0.09 0.12
0.03 0.03 0.03 0.06 0.15 0.14 0.22 0.22 0.24 0.17 0.14 0.12 0.06 0.11 0.19 0.35 0.43 0.55 0.57 0.71 0.71 0.73 1.03 0.90 0.56 0.46 0.48 0.36 0.32 0.35 0.35 0.29 0.18 0.18 0.16 0.16 0.13 0.09 0.07 0.07 0.07 0.08 0.09
0.12 0.10 0.07 0.09 0.15 0.23 0.34 0.39 0.29 0.40 0.32 0.23 0.29 0.20 0.21 0.22 0.25 0.24 0.36 0.51 0.59 0.74 0.80 0.94 1.02 0.75 0.72 0.78 0.62 0.44 0.23 0.18 0.17 0.23 0.20 0.14 0.11 0.09 0.06 0.05 0.05 0.07 0.07
0.23 0.28 0.33 0.30 0.35 0.50 0.53 0.74 0.50 0.32 0.36 0.55 0.48 0.50 0.49 0.46 0.43 0.47 0.44 0.39 0.43 0.51 0.73 0.91 1.05 1.13 1.25 1.13 0.83 0.68 0.74 0.58 0.28 0.17 0.13 0.16 0.11 0.08 0.06 0.05 0.04 0.04 0.05
0.23 0.36 0.60 0.78 0.80 0.74 0.80 0.71 0.64 0.72 0.60 0.79 0.82 0.46 0.62 0.68 0.56 0.49 0.61 0.65 0.57 0.60 0.73 0.91 1.07 1.09 1.15 1.16 1.07 0.91 0.72 0.66 0.76 0.63 0.38 0.17 0.12 0.11 0.08 0.06 0.05 0.05 0.05
0.06 0.16 0.32 0.57 0.57 0.53 0.61 0.43 0.31 0.63 0.65 0.57 0.85 0.63 0.47 0.44 0.45 0.29 0.22 0.30 0.35 0.47 0.61 0.69 0.81 0.86 0.81 0.77 0.85 0.88 0.81 0.71 0.64 0.56 0.52 0.47 0.27 0.15 0.10 0.08 0.07 0.07 0.07
0.00 0.02 0.02 0.07 0.27 0.26 0.19 0.08 0.06 0.22 0.31 0.25 0.27 0.24 0.21 0.19 0.20 0.25 0.25 0.18 0.15 0.14 0.15 0.21 0.29 0.36 0.44 0.43 0.40 0.41 0.47 0.53 0.50 0.33 0.37 0.47 0.44 0.37 0.23 0.14 0.14 0.10 0.07
0.00 0.00 0.00 0.00 0.01 0.04 0.04 0.05 0.02 0.03 0.05 0.09 0.10 0.09 0.07 0.05 0.09 0.11 0.12 0.12 0.12 0.12 0.12 0.10 0.15 0.20 0.21 0.23 0.21 0.22 0.20 0.17 0.24 0.24 0.28 0.32 0.26 0.26 0.25 0.25 0.23 0.18 0.12
0.00 0.00 0.00 0.00 0.00 0.00 0.00 0.01 0.01 0.00 0.00 0.01 0.01 0.02 0.02 0.02 0.02 0.05 0.04 0.04 0.04 0.04 0.05 0.04 0.04 0.03 0.04 0.05 0.05 0.06 0.06 0.06 0.07 0.07 0.06 0.11 0.11 0.11 0.10 0.13 0.11 0.06 0.04
0.00 0.00 0.00 0.00 0.00 0.00 0.00 0.00 0.00 0.00 0.00 0.00 0.00 0.00 0.00 0.00 0.00 0.01 0.01 0.00 0.01 0.01 0.01 0.01 0.01 0.01 0.00 0.00 0.00 0.00 0.01 0.01 0.03 0.05 0.04 0.03 0.03 0.04 0.05 0.07 0.04 0.01 0.01
0.00 0.00 0.00 0.00 0.00 0.00 0.00 0.00 0.00 0.00 0.00 0.00 0.00 0.00 0.00 0.00 0.00 0.00 0.00 0.00 0.01 0.01 0.00 0.00 0.00 0.00 0.00 0.00 0.00 0.00 0.01 0.00 0.01 0.03 0.03 0.01 0.01 0.01 0.02 0.02 0.01 0.00 0.00

GFSMA_prec_precacc12_159.txt.gz
Total_Precipitation_Accumulation
0.00 0.00 0.00 0.01 0.01 0.05 0.09 0.14 0.15 0.20 0.26 0.32 0.24 0.20 0.14 0.12 0.07 0.09 0.05 0.00 0.00 0.00 0.06 0.07 0.04 0.00 0.00 0.00 0.00 0.00 0.00 0.01 0.03 0.06 0.09 0.07 0.07 0.10 0.07 0.09 0.05 0.05 0.04
0.00 0.00 0.00 0.00 0.00 0.03 0.08 0.11 0.09 0.10 0.12 0.21 0.23 0.23 0.14 0.13 0.10 0.07 0.09 0.02 0.00 0.00 0.03 0.08 0.06 0.02 0.00 0.00 0.00 0.00 0.00 0.00 0.01 0.04 0.06 0.08 0.05 0.03 0.03 0.01 0.00 0.01 0.02
0.00 0.00 0.00 0.00 0.00 0.00 0.03 0.07 0.09 0.10 0.10 0.11 0.15 0.21 0.21 0.20 0.12 0.07 0.10 0.10 0.03 0.00 0.00 0.01 0.05 0.07 0.04 0.00 0.01 0.00 0.00 0.00 0.00 0.01 0.02 0.02 0.02 0.00 0.00 0.00 0.00 0.01 0.02
0.00 0.00 0.00 0.00 0.00 0.00 0.00 0.01 0.04 0.07 0.09 0.09 0.11 0.15 0.22 0.21 0.15 0.06 0.07 0.18 0.14 0.05 0.02 0.00 0.01 0.12 0.11 0.03 0.01 0.00 0.00 0.00 0.00 0.00 0.00 0.00 0.00 0.00 0.00 0.00 0.00 0.00 0.00
0.00 0.00 0.00 0.00 0.00 0.00 0.00 0.00 0.02 0.05 0.06 0.07 0.10 0.13 0.20 0.18 0.20 0.18 0.12 0.14 0.24 0.14 0.05 0.02 0.01 0.04 0.06 0.05 0.04 0.02 0.00 0.00 0.00 0.00 0.00 0.00 0.00 0.00 0.00 0.00 0.00 0.00 0.00
0.00 0.00 0.00 0.00 0.00 0.00 0.00 0.00 0.00 0.03 0.10 0.08 0.07 0.08 0.16 0.25 0.25 0.23 0.15 0.10 0.15 0.20 0.08 0.04 0.01 0.01 0.04 0.06 0.07 0.08 0.01 0.01 0.00 0.01 0.00 0.00 0.00 0.00 0.00 0.00 0.00 0.00 0.00
0.00 0.00 0.00 0.01 0.00 0.01 0.00 0.00 0.00 0.01 0.12 0.28 0.29 0.22 0.14 0.23 0.28 0.28 0.23 0.16 0.16 0.12 0.18 0.12 0.15 0.05 0.03 0.05 0.04 0.03 0.05 0.02 0.02 0.01 0.00 0.00 0.00 0.00 0.00 0.00 0.00 0.00 0.00
0.00 0.00 0.01 0.01 0.01 0.01 0.01 0.00 0.01 0.01 0.01 0.14 0.49 0.52 0.38 0.40 0.30 0.29 0.29 0.25 0.16 0.09 0.17 0.20 0.19 0.17 0.11 0.05 0.02 0.05 0.09 0.05 0.03 0.04 0.04 0.02 0.00 0.00 0.00 0.00 0.00 0.00 0.00
0.00 0.01 0.01 0.01 0.01 0.01 0.02 0.01 0.01 0.01 0.02 0.01 0.13 0.62 0.95 0.71 0.59 0.39 0.29 0.28 0.42 0.53 0.46 0.47 0.47 0.36 0.21 0.12 0.04 0.04 0.04 0.06 0.08 0.06 0.07 0.02 0.00 0.00 0.00 0.00 0.00 0.00 0.00
0.00 0.01 0.01 0.01 0.01 0.02 0.02 0.01 0.01 0.02 0.03 0.03 0.02 0.03 0.18 0.45 0.44 0.41 0.39 0.40 0.34 0.51 0.81 1.36 1.49 1.60 1.56 1.07 0.39 0.10 0.01 0.02 0.02 0.04 0.05 0.04 0.01 0.00 0.00 0.00 0.00 0.00 0.00
0.00 0.00 0.01 0.01 0.01 0.02 0.03 0.02 0.02 0.02 0.02 0.04 0.04 0.04 0.21 0.54 0.44 0.27 0.22 0.17 0.19 0.20 0.30 0.31 0.63 1.01 1.00 0.91 0.70 0.33 0.10 0.05 0.05 0.06 0.07 0.05 0.03 0.01 0.00 0.00 0.00 0.00 0.00
0.00 0.01 0.01 0.01 0.01 0.01 0.01 0.02 0.02 0.02 0.02 0.04 0.05 0.05 0.06 0.16 0.38 0.52 0.41 0.24 0.16 0.10 0.12 0.15 0.19 0.28 0.27 0.32 0.40 0.39 0.16 0.16 0.08 0.04 0.03 0.04 0.03 0.00 0.00 0.00 0.00 0.00 0.00
0.01 0.01 0.01 0.01 0.01 0.01 0.01 0.02 0.02 0.03 0.03 0.04 0.05 0.07 0.08 0.09 0.08 0.08 0.15 0.23 0.26 0.20 0.19 0.22 0.23 0.24 0.24 0.28 0.27 0.33 0.39 0.37 0.30 0.15 0.05 0.02 0.04 0.04 0.02 0.02 0.03 0.03 0.01
0.03 0.02 0.01 0.01 0.01 0.01 0.01 0.02 0.04 0.04 0.04 0.05 0.06 0.07 0.12 0.14 0.16 0.16 0.14 0.14 0.16 0.16 0.20 0.25 0.28 0.32 0.36 0.40 0.38 0.60 0.68 0.59 0.55 0.50 0.38 0.22 0.10 0.08 0.08 0.06 0.08 0.10 0.11
0.03 0.02 0.02 0.01 0.01 0.01 0.01 0.02 0.03 0.03 0.04 0.08 0.11 0.14 0.17 0.19 0.21 0.22 0.26 0.29 0.29 0.23 0.18 0.19 0.34 0.46 0.50 0.47 0.47 0.47 0.48 0.50 0.55 0.51 0.43 0.34 0.26 0.18 0.13 0.13 0.13 0.12 0.11
0.01 0.02 0.02 0.02 0.02 0.01 0.01 0.02 0.06 0.05 0.06 0.04 0.05 0.09 0.16 0.15 0.12 0.19 0.29 0.27 0.54 0.51 0.45 0.45 0.49 0.33 0.32 0.32 0.45 0.50 0.43 0.37 0.43 0.42 0.41 0.35 0.26 0.19 0.15 0.12 0.09 0.09 0.10
0.02 0.03 0.03 0.03 0.05 0.04 0.05 0.11 0.21 0.14 0.11 0.11 0.06 0.09 0.11 0.16 0.16 0.16 0.13 0.23 0.32 0.56 0.98 0.97 0.60 0.45 0.39 0.29 0.29 0.35 0.36 0.33 0.27 0.29 0.29 0.35 0.35 0.27 0.20 0.16 0.13 0.11 0.09
0.05 0.05 0.03 0.03 0.06 0.08 0.15 0.19 0.18 0.31 0.26 0.17 0.23 0.14 0.15 0.13 0.13 0.11 0.11 0.10 0.15 0.41 0.67 0.97 1.24 1.06 0.68 0.56 0.47 0.37 0.26 0.26 0.27 0.34 0.34 0.32 0.30 0.27 0.19 0.15 0.13 0.12 0.11
0.02 0.01 0.02 0.03 0.08 0.24 0.31 0.56 0.39 0.21 0.25 0.38 0.39 0.35 0.30 0.30 0.27 0.26 0.24 0.21 0.20 0.21 0.48 0.78 0.97 1.04 1.07 0.94 0.72 0.61 0.64 0.53 0.35 0.30 0.28 0.32 0.38 0.29 0.20 0.17 0.14 0.10 0.09
0.02 0.02 0.04 0.09 0.11 0.11 0.19 0.30 0.42 0.39 0.38 0.54 0.67 0.44 0.54 0.54 0.45 0.38 0.49 0.54 0.44 0.42 0.49 0.67 0.90 1.01 1.07 1.02 0.97 0.92 0.87 0.77 0.79 0.76 0.61 0.45 0.37 0.33 0.25 0.18 0.15 0.13 0.10
0.00 0.02 0.04 0.08 0.11 0.12 0.18 0.25 0.17 0.41 0.33 0.44 0.79 0.62 0.47 0.44 0.47 0.31 0.26 0.39 0.41 0.43 0.54 0.61 0.73 0.78 0.81 0.83 0.91 1.01 1.05 1.10 1.07 0.87 0.72 0.69 0.62 0.47 0.43 0.39 0.27 0.19 0.12
0.00 0.00 0.00 0.02 0.07 0.08 0.09 0.04 0.04 0.17 0.26 0.23 0.27 0.24 0.21 0.19 0.20 0.24 0.23 0.19 0.21 0.21 0.22 0.31 0.39 0.47 0.59 0.64 0.65 0.68 0.75 0.84 0.86 0.69 0.75 0.77 0.69 0.72 0.70 0.59 0.56 0.38 0.18
0.00 0.00 0.00 0.00 0.00 0.03 0.03 0.03 0.01 0.03 0.05 0.09 0.10 0.09 0.07 0.06 0.09 0.11 0.13 0.12 0.12 0.12 0.12 0.10 0.17 0.23 0.23 0.25 0.25 0.28 0.30 0.32 0.43 0.44 0.52 0.55 0.48 0.52 0.56 0.61 0.62 0.57 0.43
0.00 0.00 0.00 0.00 0.00 0.00 0.00 0.01 0.01 0.00 0.00 0.01 0.01 0.02 0.02 0.02 0.02 0.05 0.04 0.04 0.04 0.05 0.06 0.04 0.04 0.04 0.04 0.05 0.06 0.07 0.08 0.10 0.12 0.11 0.11 0.16 0.15 0.17 0.18 0.21 0.18 0.14 0.16
0.00 0.00 0.00 0.00 0.00 0.00 0.00 0.00 0.00 0.00 0.00 0.00 0.00 0.00 0.00 0.00 0.00 0.01 0.01 0.01 0.01 0.02 0.01 0.01 0.01 0.01 0.01 0.00 0.00 0.01 0.01 0.02 0.04 0.06 0.04 0.04 0.04 0.05 0.06 0.09 0.04 0.02 0.03
0.00 0.00 0.00 0.00 0.00 0.00 0.00 0.00 0.00 0.00 0.00 0.00 0.00 0.00 0.00 0.00 0.00 0.00 0.00 0.01 0.01 0.01 0.01 0.00 0.00 0.00 0.00 0.00 0.00 0.00 0.00 0.00 0.01 0.04 0.03 0.01 0.01 0.01 0.02 0.02 0.01 0.00 0.00

GFSMA_prec_precacc12_165.txt.gz
Total_Precipitation_Accumulation
0.00 0.00 0.00 0.00 0.00 0.00 0.00 0.00 0.02 0.07 0.14 0.22 0.19 0.19 0.14 0.12 0.07 0.09 0.05 0.02 0.01 0.05 0.06 0.11 0.12 0.09 0.08 0.06 0.04 0.02 0.00 0.00 0.00 0.00 0.00 0.00 0.00 0.01 0.01 0.02 0.05 0.06 0.06
0.00 0.00 0.00 0.00 0.00 0.00 0.00 0.00 0.00 0.00 0.03 0.10 0.15 0.20 0.14 0.13 0.10 0.07 0.09 0.05 0.04 0.02 0.07 0.11 0.19 0.16 0.10 0.07 0.02 0.02 0.01 0.00 0.00 0.00 0.00 0.00 0.00 0.00 0.00 0.01 0.01 0.02 0.02
0.00 0.00 0.00 0.00 0.00 0.00 0.00 0.00 0.00 0.00 0.00 0.02 0.06 0.13 0.19 0.20 0.13 0.07 0.10 0.10 0.04 0.03 0.03 0.06 0.14 0.19 0.13 0.08 0.02 0.00 0.00 0.00 0.00 0.00 0.00 0.00 0.00 0.00 0.00 0.00 0.01 0.03 0.04
0.00 0.00 0.00 0.00 0.00 0.00 0.00 0.00 0.00 0.00 0.00 0.00 0.02 0.07 0.14 0.20 0.15 0.06 0.07 0.19 0.15 0.06 0.10 0.10 0.14 0.20 0.22 0.15 0.07 0.02 0.00 0.00 0.00 0.00 0.00 0.00 0.00 0.00 0.00 0.00 0.00 0.01 0.02
0.00 0.00 0.00 0.00 0.00 0.00 0.00 0.00 0.00 0.00 0.00 0.00 0.00 0.02 0.07 0.12 0.19 0.18 0.12 0.14 0.25 0.16 0.07 0.08 0.15 0.24 0.31 0.39 0.27 0.13 0.07 0.02 0.00 0.00 0.00 0.00 0.00 0.00 0.00 0.00 0.00 0.00 0.00
0.00 0.00 0.00 0.00 0.00 0.00 0.00 0.00 0.00 0.00 0.00 0.00 0.00 0.00 0.02 0.07 0.15 0.21 0.15 0.10 0.16 0.21 0.08 0.05 0.10 0.16 0.29 0.42 0.44 0.29 0.14 0.05 0.01 0.00 0.00 0.00 0.00 0.00 0.00 0.00 0.00 0.00 0.00
0.00 0.00 0.00 0.00 0.00 0.00 0.00 0.00 0.00 0.00 0.00 0.00 0.00 0.00 0.00 0.02 0.06 0.14 0.21 0.15 0.16 0.12 0.18 0.12 0.14 0.16 0.26 0.36 0.38 0.26 0.18 0.05 0.01 0.00 0.00 0.00 0.00 0.00 0.00 0.00 0.00 0.00 0.00
0.00 0.00 0.00 0.00 0.00 0.00 0.00 0.00 0.00 0.01 0.00 0.00 0.01 0.01 0.01 0.00 0.01 0.03 0.10 0.16 0.14 0.08 0.16 0.20 0.20 0.21 0.32 0.37 0.32 0.38 0.35 0.22 0.06 0.01 0.00 0.00 0.00 0.00 0.00 0.00 0.00 0.00 0.00
0.00 0.00 0.00 0.00 0.00 0.00 0.01 0.00 0.01 0.01 0.01 0.01 0.01 0.04 0.05 0.02 0.01 0.01 0.01 0.05 0.22 0.45 0.44 0.46 0.49 0.42 0.33 0.32 0.30 0.35 0.35 0.40 0.47 0.32 0.13 0.01 0.00 0.00 0.00 0.00 0.00 0.00 0.00
0.00 0.00 0.00 0.00 0.00 0.00 0.01 0.00 0.01 0.01 0.03 0.02 0.01 0.01 0.02 0.04 0.05 0.03 0.02 0.07 0.17 0.39 0.75 1.33 1.46 1.61 1.64 1.58 1.42 1.25 1.23 1.24 1.19 1.30 1.12 0.45 0.09 0.01 0.00 0.00 0.00 0.00 0.00
0.00 0.00 0.01 0.00 0.00 0.00 0.01 0.01 0.01 0.01 0.02 0.03 0.03 0.02 0.01 0.01 0.02 0.05 0.03 0.03 0.05 0.11 0.22 0.25 0.57 0.94 1.00 0.94 0.91 1.01 1.04 1.39 1.37 1.32 1.27 0.77 0.31 0.13 0.03 0.00 0.00 0.00 0.00
0.00 0.00 0.00 0.00 0.00 0.00 0.01 0.01 0.01 0.02 0.02 0.03 0.04 0.04 0.03 0.04 0.03 0.06 0.05 0.03 0.03 0.03 0.05 0.08 0.11 0.23 0.26 0.31 0.43 0.52 0.45 0.46 0.66 0.69 0.66 0.52 0.35 0.23 0.13 0.03 0.00 0.00 0.00
0.00 0.01 0.01 0.01 0.01 0.00 0.01 0.01 0.02 0.03 0.03 0.03 0.04 0.06 0.05 0.04 0.05 0.05 0.06 0.05 0.04 0.03 0.03 0.09 0.15 0.17 0.20 0.26 0.29 0.39 0.48 0.48 0.36 0.39 0.39 0.35 0.30 0.29 0.22 0.16 0.07 0.03 0.01
0.01 0.00 0.00 0.01 0.01 0.00 0.01 0.01 0.01 0.02 0.02 0.04 0.05 0.05 0.06 0.05 0.04 0.06 0.08 0.10 0.08 0.05 0.04 0.10 0.13 0.18 0.23 0.30 0.31 0.47 0.59 0.57 0.54 0.48 0.42 0.40 0.45 0.42 0.30 0.25 0.20 0.13 0.06
0.00 0.00 0.00 0.00 0.00 0.00 0.01 0.01 0.01 0.01 0.01 0.03 0.04 0.04 0.06 0.08 0.07 0.06 0.09 0.16 0.19 0.11 0.06 0.10 0.12 0.16 0.24 0.25 0.34 0.37 0.42 0.59 0.66 0.63 0.58 0.51 0.47 0.53 0.59 0.50 0.38 0.28 0.17
0.00 0.00 0.00 0.00 0.01 0.00 0.00 0.00 0.01 0.00 0.01 0.01 0.03 0.04 0.05 0.07 0.08 0.07 0.08 0.12 0.24 0.29 0.24 0.15 0.17 0.11 0.12 0.16 0.39 0.44 0.40 0.39 0.67 0.86 0.85 0.96 1.02 0.78 0.57 0.67 0.69 0.48 0.34
0.00 0.00 0.00 0.00 0.01 0.01 0.01 0.01 0.01 0.01 0.02 0.01 0.02 0.03 0.04 0.05 0.08 0.10 0.07 0.09 0.11 0.19 0.63 0.57 0.25 0.18 0.11 0.09 0.15 0.24 0.32 0.28 0.26 0.41 0.61 0.76 1.00 1.50 1.34 0.94 0.90 1.06 0.78
0.00 0.00 0.00 0.00 0.00 0.01 0.01 0.01 0.01 0.02 0.03 0.04 0.06 0.06 0.07 0.07 0.08 0.06 0.06 0.07 0.07 0.15 0.27 0.39 0.57 0.52 0.37 0.25 0.17 0.19 0.17 0.21 0.24 0.33 0.36 0.38 0.48 0.69 1.00 1.20 1.03 1.03 1.24
0.00 0.00 0.00 0.00 0.00 0.00 0.00 0.01 0.03 0.04 0.06 0.09 0.14 0.20 0.17 0.17 0.17 0.18 0.19 0.14 0.15 0.13 0.28 0.35 0.37 0.41 0.54 0.56 0.48 0.46 0.47 0.42 0.31 0.27 0.27 0.32 0.41 0.42 0.48 0.68 0.96 1.00 0.87
0.00 0.00 0.00 0.00 0.00 0.00 0.00 0.00 0.00 0.00 0.01 0.06 0.16 0.20 0.24 0.23 0.24 0.21 0.29 0.33 0.27 0.23 0.29 0.38 0.53 0.60 0.59 0.68 0.64 0.61 0.62 0.55 0.64 0.59 0.51 0.40 0.37 0.46 0.47 0.46 0.46 0.57 0.75
0.00 0.00 0.00 0.00 0.00 0.00 0.00 0.00 0.00 0.00 0.01 0.01 0.05 0.07 0.08 0.11 0.12 0.09 0.10 0.23 0.28 0.31 0.38 0.39 0.45 0.52 0.61 0.62 0.69 0.77 0.79 0.76 0.79 0.81 0.69 0.64 0.61 0.56 0.57 0.52 0.53 0.51 0.50
0.00 0.00 0.00 0.00 0.00 0.00 0.00 0.00 0.00 0.00 0.00 0.01 0.02 0.03 0.02 0.02 0.02 0.04 0.08 0.06 0.11 0.16 0.21 0.28 0.35 0.45 0.59 0.66 0.65 0.62 0.65 0.72 0.72 0.70 0.87 0.88 0.81 0.83 0.94 0.95 0.94 0.76 0.60
0.00 0.00 0.00 0.00 0.00 0.00 0.00 0.00 0.00 0.00 0.00 0.00 0.01 0.02 0.02 0.01 0.02 0.01 0.02 0.03 0.05 0.08 0.12 0.10 0.13 0.17 0.19 0.21 0.24 0.30 0.33 0.34 0.49 0.53 0.58 0.60 0.61 0.71 0.79 0.91 1.02 1.06 0.97
0.00 0.00 0.00 0.00 0.00 0.00 0.00 0.00 0.00 0.00 0.00 0.00 0.00 0.00 0.01 0.01 0.01 0.02 0.01 0.02 0.03 0.04 0.05 0.06 0.07 0.05 0.04 0.04 0.06 0.07 0.10 0.13 0.12 0.10 0.10 0.13 0.14 0.22 0.26 0.27 0.24 0.27 0.35
0.00 0.00 0.00 0.00 0.00 0.00 0.00 0.00 0.00 0.00 0.00 0.00 0.00 0.00 0.00 0.00 0.00 0.00 0.01 0.00 0.01 0.02 0.01 0.01 0.01 0.01 0.01 0.00 0.00 0.01 0.02 0.02 0.05 0.05 0.02 0.04 0.03 0.05 0.08 0.07 0.03 0.02 0.05
0.00 0.00 0.00 0.00 0.00 0.00 0.00 0.00 0.00 0.00 0.00 0.00 0.00 0.00 0.00 0.00 0.00 0.00 0.00 0.01 0.01 0.01 0.01 0.00 0.00 0.00 0.00 0.00 0.00 0.00 0.01 0.01 0.01 0.03 0.02 0.01 0.01 0.01 0.01 0.01 0.00 0.00 0.00

GFSMA_prec_precacc12_171.txt.gz
Total_Precipitation_Accumulation
0.00 0.00 0.00 0.00 0.00 0.00 0.00 0.00 0.00 0.00 0.00 0.00 0.00 0.00 0.00 0.00 0.00 0.00 0.00 0.02 0.02 0.04 0.03 0.06 0.10 0.13 0.13 0.08 0.05 0.04 0.04 0.03 0.02 0.02 0.03 0.02 0.00 0.00 0.01 0.02 0.02 0.02 0.04
0.00 0.00 0.00 0.00 0.00 0.00 0.00 0.00 0.00 0.00 0.00 0.00 0.00 0.00 0.00 0.00 0.00 0.00 0.00 0.02 0.04 0.02 0.04 0.07 0.16 0.18 0.15 0.12 0.05 0.03 0.03 0.03 0.02 0.02 0.03 0.01 0.00 0.00 0.00 0.01 0.01 0.01 0.01
0.00 0.00 0.00 0.00 0.00 0.00 0.00 0.00 0.00 0.00 0.00 0.00 0.00 0.00 0.00 0.00 0.00 0.00 0.00 0.00 0.00 0.03 0.03 0.05 0.13 0.17 0.16 0.12 0.05 0.01 0.01 0.00 0.00 0.00 0.01 0.00 0.00 0.00 0.00 0.00 0.01 0.02 0.02
0.00 0.00 0.00 0.00 0.00 0.00 0.00 0.00 0.00 0.00 0.00 0.00 0.00 0.00 0.00 0.00 0.00 0.00 0.00 0.00 0.00 0.01 0.07 0.10 0.13 0.16 0.19 0.16 0.12 0.08 0.04 0.01 0.00 0.00 0.00 0.00 0.00 0.00 0.00 0.00 0.00 0.01 0.03
0.00 0.00 0.00 0.00 0.00 0.00 0.00 0.00 0.00 0.00 0.00 0.00 0.00 0.00 0.00 0.00 0.00 0.00 0.00 0.00 0.00 0.01 0.02 0.07 0.14 0.21 0.29 0.37 0.28 0.17 0.15 0.12 0.03 0.00 0.00 0.00 0.00 0.00 0.00 0.00 0.00 0.00 0.00
0.00 0.00 0.00 0.00 0.00 0.00 0.00 0.00 0.00 0.00 0.00 0.00 0.00 0.00 0.00 0.00 0.00 0.00 0.00 0.00 0.00 0.00 0.00 0.01 0.09 0.15 0.25 0.39 0.42 0.29 0.21 0.14 0.11 0.06 0.02 0.00 0.00 0.00 0.00 0.00 0.00 0.00 0.00
0.00 0.00 0.00 0.00 0.00 0.00 0.00 0.00 0.00 0.00 0.00 0.00 0.00 0.00 0.00 0.00 0.00 0.00 0.00 0.00 0.00 0.00 0.00 0.01 0.04 0.11 0.23 0.31 0.36 0.28 0.22 0.12 0.10 0.13 0.09 0.03 0.00 0.00 0.00 0.00 0.00 0.00 0.00
0.00 0.00 0.00 0.00 0.00 0.00 0.00 0.00 0.00 0.00 0.00 0.00 0.01 0.00 0.00 0.00 0.00 0.00 0.00 0.00 0.00 0.00 0.00 0.01 0.04 0.07 0.22 0.33 0.32 0.34 0.31 0.27 0.16 0.17 0.24 0.24 0.07 0.03 0.01 0.03 0.01 0.00 0.00
0.00 0.00 0.00 0.00 0.00 0.00 0.00 0.00 0.00 0.00 0.00 0.00 0.00 0.03 0.04 0.02 0.00 0.00 0.00 0.00 0.00 0.00 0.01 0.01 0.05 0.09 0.15 0.22 0.26 0.32 0.33 0.37 0.48 0.45 0.46 0.48 0.41 0.27 0.18 0.13 0.06 0.01 0.00
0.00 0.00 0.00 0.00 0.00 0.00 0.00 0.00 0.00 0.00 0.01 0.00 0.00 0.00 0.03 0.05 0.04 0.02 0.00 0.00 0.00 0.00 0.01 0.01 0.02 0.07 0.13 0.54 1.06 1.18 1.23 1.23 1.19 1.34 1.38 1.27 1.21 1.28 1.33 1.09 0.59 0.15 0.01
0.00 0.00 0.00 0.00 0.00 0.00 0.00 0.00 0.00 0.01 0.01 0.02 0.02 0.02 0.01 0.01 0.04 0.06 0.02 0.00 0.00 0.00 0.00 0.01 0.02 0.03 0.06 0.07 0.23 0.70 0.95 1.35 1.33 1.31 1.37 1.22 1.04 1.06 1.21 1.62 1.36 0.45 0.12
0.00 0.00 0.00 0.00 0.00 0.00 0.01 0.00 0.00 0.01 0.01 0.01 0.02 0.02 0.03 0.04 0.04 0.06 0.04 0.02 0.01 0.00 0.02 0.02 0.02 0.03 0.03 0.03 0.04 0.16 0.30 0.31 0.61 0.68 0.66 0.68 0.60 0.56 0.52 0.49 0.67 0.61 0.25
0.00 0.00 0.00 0.00 0.00 0.00 0.00 0.00 0.00 0.01 0.02 0.02 0.02 0.03 0.03 0.03 0.06 0.07 0.06 0.03 0.01 0.00 0.03 0.04 0.03 0.03 0.03 0.03 0.05 0.09 0.12 0.14 0.11 0.30 0.38 0.35 0.29 0.30 0.29 0.29 0.26 0.23 0.15
0.00 0.00 0.00 0.00 0.00 0.00 0.00 0.00 0.00 0.00 0.01 0.02 0.02 0.02 0.03 0.04 0.05 0.07 0.10 0.09 0.04 0.02 0.05 0.06 0.06 0.05 0.05 0.08 0.09 0.10 0.06 0.12 0.13 0.14 0.17 0.28 0.42 0.42 0.34 0.31 0.27 0.24 0.27
0.00 0.00 0.00 0.00 0.00 0.00 0.00 0.00 0.00 0.00 0.00 0.01 0.02 0.02 0.03 0.03 0.04 0.06 0.09 0.12 0.13 0.08 0.06 0.03 0.07 0.07 0.07 0.08 0.13 0.06 0.05 0.19 0.24 0.28 0.30 0.31 0.32 0.43 0.58 0.53 0.43 0.37 0.33
0.00 0.00 0.00 0.00 0.00 0.00 0.00 0.00 0.00 0.00 0.00 0.00 0.01 0.02 0.03 0.03 0.03 0.04 0.06 0.09 0.13 0.14 0.14 0.09 0.07 0.05 0.05 0.05 0.14 0.05 0.06 0.11 0.34 0.52 0.53 0.75 0.88 0.69 0.50 0.64 0.75 0.62 0.49
0.00 0.00 0.00 0.00 0.00 0.00 0.00 0.00 0.00 0.00 0.00 0.00 0.01 0.01 0.01 0.01 0.02 0.03 0.04 0.06 0.09 0.13 0.22 0.15 0.10 0.10 0.08 0.07 0.07 0.05 0.05 0.01 0.05 0.19 0.39 0.54 0.87 1.48 1.35 0.96 0.93 1.13 0.94
0.00 0.00 0.00 0.00 0.00 0.00 0.00 0.00 0.00 0.00 0.00 0.00 0.01 0.01 0.02 0.01 0.01 0.01 0.02 0.04 0.07 0.11 0.19 0.19 0.16 0.14 0.15 0.15 0.12 0.09 0.06 0.04 0.02 0.07 0.08 0.14 0.32 0.67 1.15 1.40 1.23 1.19 1.33
0.00 0.00 0.00 0.00 0.00 0.00 0.00 0.00 0.00 0.00 0.00 0.00 0.01 0.01 0.02 0.01 0.02 0.03 0.04 0.04 0.06 0.07 0.11 0.15 0.18 0.16 0.14 0.16 0.20 0.18 0.11 0.06 0.05 0.05 0.03 0.04 0.11 0.24 0.44 0.76 1.16 1.28 1.20
0.00 0.00 0.00 0.00 0.00 0.00 0.00 0.00 0.00 0.00 0.00 0.00 0.00 0.00 0.00 0.01 0.02 0.02 0.04 0.07 0.10 0.09 0.11 0.12 0.17 0.18 0.19 0.23 0.14 0.15 0.15 0.12 0.11 0.08 0.07 0.06 0.11 0.22 0.30 0.38 0.43 0.61 0.84
0.00 0.00 0.00 0.00 0.00 0.00 0.00 0.00 0.00 0.00 0.00 0.00 0.00 0.00 0.00 0.00 0.01 0.01 0.01 0.03 0.07 0.13 0.14 0.14 0.16 0.19 0.24 0.26 0.33 0.34 0.24 0.21 0.19 0.22 0.19 0.16 0.15 0.21 0.24 0.23 0.33 0.39 0.46
0.00 0.00 0.00 0.00 0.00 0.00 0.00 0.00 0.00 0.00 0.00 0.00 0.00 0.00 0.00 0.00 0.00 0.00 0.01 0.01 0.03 0.07 0.11 0.13 0.16 0.18 0.23 0.25 0.25 0.25 0.25 0.23 0.22 0.25 0.32 0.33 0.30 0.27 0.36 0.46 0.44 0.44 0.47
0.00 0.00 0.00 0.00 0.00 0.00 0.00 0.00 0.00 0.00 0.00 0.00 0.00 0.00 0.00 0.00 0.00 0.00 0.00 0.00 0.01 0.03 0.06 0.07 0.06 0.08 0.09 0.09 0.10 0.12 0.12 0.12 0.19 0.23 0.20 0.21 0.25 0.30 0.32 0.38 0.47 0.54 0.58
0.00 0.00 0.00 0.00 0.00 0.00 0.00 0.00 0.00 0.00 0.00 0.00 0.00 0.00 0.00 0.00 0.00 0.00 0.00 0.00 0.00 0.00 0.00 0.02 0.04 0.04 0.02 0.01 0.02 0.03 0.05 0.05 0.02 0.02 0.01 0.02 0.03 0.09 0.11 0.10 0.12 0.16 0.21
0.00 0.00 0.00 0.00 0.00 0.00 0.00 0.00 0.00 0.00 0.00 0.00 0.00 0.00 0.00 0.00 0.00 0.00 0.00 0.00 0.00 0.00 0.00 0.00 0.00 0.00 0.01 0.00 0.00 0.00 0.01 0.00 0.02 0.01 0.01 0.01 0.00 0.02 0.05 0.02 0.01 0.01 0.02
0.00 0.00 0.00 0.00 0.00 0.00 0.00 0.00 0.00 0.00 0.00 0.00 0.00 0.00 0.00 0.00 0.00 0.00 0.00 0.00 0.00 0.00 0.00 0.00 0.00 0.00 0.00 0.00 0.00 0.00 0.00 0.00 0.00 0.00 0.00 0.01 0.00 0.00 0.01 0.00 0.00 0.00 0.00

GFSMA_prec_precacc12_174.txt.gz
Total_Precipitation_Accumulation
0.00 0.00 0.00 0.00 0.00 0.00 0.00 0.00 0.00 0.00 0.00 0.00 0.00 0.00 0.00 0.00 0.00 0.00 0.00 0.01 0.00 0.02 0.01 0.02 0.06 0.09 0.13 0.11 0.07 0.05 0.04 0.03 0.02 0.02 0.03 0.02 0.00 0.00 0.00 0.01 0.02 0.02 0.04
0.00 0.00 0.00 0.00 0.00 0.00 0.00 0.00 0.00 0.00 0.00 0.00 0.00 0.00 0.00 0.00 0.00 0.00 0.00 0.00 0.00 0.00 0.01 0.01 0.07 0.11 0.11 0.13 0.07 0.06 0.05 0.03 0.02 0.03 0.03 0.01 0.00 0.00 0.00 0.00 0.01 0.01 0.01
0.00 0.00 0.00 0.00 0.00 0.00 0.00 0.00 0.00 0.00 0.00 0.00 0.00 0.00 0.00 0.00 0.00 0.00 0.00 0.00 0.00 0.00 0.00 0.01 0.03 0.11 0.12 0.10 0.05 0.02 0.03 0.01 0.00 0.00 0.01 0.00 0.00 0.00 0.00 0.00 0.01 0.02 0.02
0.00 0.00 0.00 0.00 0.00 0.00 0.00 0.00 0.00 0.00 0.00 0.00 0.00 0.00 0.00 0.00 0.00 0.00 0.00 0.00 0.00 0.00 0.00 0.00 0.00 0.05 0.13 0.15 0.11 0.08 0.04 0.02 0.02 0.01 0.00 0.00 0.00 0.00 0.00 0.00 0.00 0.01 0.03
0.00 0.00 0.00 0.00 0.00 0.00 0.00 0.00 0.00 0.00 0.00 0.00 0.00 0.00 0.00 0.00 0.00 0.00 0.00 0.00 0.00 0.00 0.00 0.00 0.00 0.04 0.13 0.24 0.23 0.17 0.15 0.14 0.07 0.04 0.02 0.01 0.02 0.05 0.05 0.01 0.00 0.00 0.00
0.00 0.00 0.00 0.00 0.00 0.00 0.00 0.00 0.00 0.00 0.00 0.00 0.00 0.00 0.00 0.00 0.00 0.00 0.00 0.00 0.00 0.00 0.00 0.00 0.00 0.00 0.06 0.20 0.26 0.26 0.20 0.14 0.12 0.10 0.08 0.05 0.04 0.06 0.07 0.06 0.02 0.00 0.00
0.00 0.00 0.00 0.00 0.00 0.00 0.00 0.00 0.00 0.00 0.00 0.00 0.00 0.00 0.00 0.00 0.00 0.00 0.00 0.00 0.00 0.00 0.00 0.00 0.00 0.00 0.01 0.07 0.18 0.21 0.19 0.12 0.10 0.13 0.12 0.09 0.14 0.12 0.08 0.12 0.08 0.02 0.00
0.00 0.00 0.00 0.00 0.00 0.00 0.00 0.00 0.00 0.00 0.00 0.00 0.00 0.00 0.00 0.00 0.00 0.00 0.00 0.00 0.00 0.00 0.00 0.00 0.01 0.01 0.04 0.08 0.10 0.17 0.24 0.24 0.16 0.17 0.24 0.26 0.17 0.18 0.16 0.22 0.17 0.08 0.02
0.00 0.00 0.00 0.00 0.00 0.00 0.00 0.00 0.00 0.00 0.00 0.00 0.00 0.02 0.03 0.01 0.00 0.00 0.00 0.00 0.00 0.00 0.00 0.01 0.01 0.03 0.02 0.03 0.06 0.07 0.15 0.26 0.42 0.45 0.46 0.48 0.42 0.33 0.34 0.34 0.27 0.20 0.10
0.00 0.00 0.00 0.00 0.00 0.00 0.00 0.00 0.00 0.00 0.01 0.00 0.00 0.00 0.02 0.04 0.04 0.02 0.00 0.00 0.00 0.00 0.00 0.00 0.01 0.02 0.02 0.03 0.03 0.06 0.11 0.32 0.92 1.24 1.34 1.28 1.21 1.31 1.42 1.29 0.82 0.39 0.18
0.00 0.00 0.00 0.00 0.00 0.00 0.00 0.00 0.00 0.00 0.00 0.01 0.01 0.01 0.00 0.00 0.03 0.06 0.02 0.00 0.00 0.00 0.01 0.02 0.03 0.01 0.01 0.01 0.04 0.06 0.08 0.26 0.57 1.01 1.21 1.16 1.04 1.07 1.25 1.73 1.77 1.24 0.64
0.00 0.00 0.00 0.00 0.00 0.00 0.00 0.00 0.00 0.00 0.00 0.01 0.01 0.01 0.02 0.03 0.02 0.04 0.03 0.01 0.00 0.00 0.05 0.04 0.02 0.02 0.01 0.01 0.04 0.06 0.03 0.04 0.08 0.20 0.47 0.55 0.55 0.57 0.55 0.55 0.80 1.05 0.80
0.00 0.00 0.00 0.00 0.00 0.00 0.00 0.00 0.00 0.00 0.00 0.01 0.01 0.01 0.02 0.03 0.04 0.05 0.05 0.02 0.01 0.01 0.06 0.05 0.03 0.03 0.03 0.02 0.04 0.07 0.04 0.02 0.02 0.03 0.11 0.21 0.19 0.22 0.28 0.31 0.29 0.30 0.25
0.00 0.00 0.00 0.00 0.00 0.00 0.00 0.00 0.00 0.00 0.00 0.01 0.01 0.01 0.02 0.03 0.04 0.06 0.08 0.07 0.03 0.03 0.08 0.09 0.07 0.06 0.07 0.08 0.09 0.10 0.04 0.06 0.03 0.02 0.03 0.12 0.27 0.28 0.24 0.30 0.31 0.29 0.29
0.00 0.00 0.00 0.00 0.00 0.00 0.00 0.00 0.00 0.00 0.00 0.00 0.01 0.01 0.02 0.02 0.03 0.05 0.08 0.10 0.11 0.06 0.06 0.05 0.08 0.07 0.08 0.06 0.11 0.05 0.03 0.11 0.07 0.08 0.06 0.07 0.12 0.22 0.42 0.47 0.40 0.41 0.38
0.00 0.00 0.00 0.00 0.00 0.00 0.00 0.00 0.00 0.00 0.00 0.00 0.00 0.01 0.01 0.02 0.02 0.03 0.06 0.08 0.11 0.12 0.14 0.10 0.09 0.08 0.06 0.04 0.10 0.04 0.05 0.05 0.06 0.07 0.13 0.20 0.19 0.26 0.29 0.46 0.66 0.59 0.47
0.00 0.00 0.00 0.00 0.00 0.00 0.00 0.00 0.00 0.00 0.00 0.00 0.00 0.00 0.01 0.00 0.01 0.02 0.04 0.06 0.08 0.11 0.19 0.14 0.10 0.12 0.09 0.08 0.07 0.05 0.04 0.01 0.04 0.07 0.09 0.18 0.31 0.51 0.78 0.67 0.66 0.99 1.10
0.00 0.00 0.00 0.00 0.00 0.00 0.00 0.00 0.00 0.00 0.00 0.00 0.00 0.00 0.00 0.00 0.00 0.01 0.01 0.02 0.06 0.09 0.12 0.15 0.14 0.14 0.14 0.13 0.12 0.09 0.06 0.05 0.05 0.07 0.06 0.08 0.18 0.40 0.65 0.90 0.91 0.83 1.15
0.00 0.00 0.00 0.00 0.00 0.00 0.00 0.00 0.00 0.00 0.00 0.00 0.00 0.00 0.00 0.00 0.00 0.00 0.01 0.01 0.03 0.05 0.07 0.10 0.13 0.14 0.12 0.11 0.11 0.11 0.09 0.06 0.05 0.05 0.03 0.03 0.07 0.11 0.23 0.49 0.80 0.91 0.89
0.00 0.00 0.00 0.00 0.00 0.00 0.00 0.00 0.00 0.00 0.00 0.00 0.00 0.00 0.00 0.00 0.00 0.00 0.00 0.01 0.01 0.02 0.04 0.05 0.07 0.09 0.11 0.11 0.09 0.10 0.09 0.10 0.10 0.07 0.07 0.05 0.03 0.04 0.06 0.11 0.20 0.33 0.51
0.00 0.00 0.00 0.00 0.00 0.00 0.00 0.00 0.00 0.00 0.00 0.00 0.00 0.00 0.00 0.00 0.00 0.00 0.00 0.00 0.00 0.00 0.01 0.03 0.04 0.07 0.11 0.14 0.14 0.14 0.12 0.15 0.13 0.11 0.09 0.08 0.06 0.03 0.05 0.05 0.06 0.09 0.12
0.00 0.00 0.00 0.00 0.00 0.00 0.00 0.00 0.00 0.00 0.00 0.00 0.00 0.00 0.00 0.00 0.00 0.00 0.00 0.00 0.00 0.00 0.01 0.01 0.02 0.06 0.09 0.10 0.13 0.12 0.10 0.10 0.10 0.09 0.11 0.10 0.08 0.08 0.11 0.15 0.11 0.11 0.13
0.00 0.00 0.00 0.00 0.00 0.00 0.00 0.00 0.00 0.00 0.00 0.00 0.00 0.00 0.00 0.00 0.00 0.00 0.00 0.00 0.00 0.00 0.01 0.01 0.02 0.04 0.04 0.04 0.04 0.07 0.06 0.07 0.11 0.11 0.09 0.09 0.10 0.09 0.08 0.09 0.10 0.16 0.20
0.00 0.00 0.00 0.00 0.00 0.00 0.00 0.00 0.00 0.00 0.00 0.00 0.00 0.00 0.00 0.00 0.00 0.00 0.00 0.00 0.00 0.00 0.00 0.00 0.01 0.03 0.02 0.01 0.01 0.02 0.04 0.03 0.01 0.01 0.01 0.01 0.01 0.04 0.01 0.01 0.02 0.04 0.08
0.00 0.00 0.00 0.00 0.00 0.00 0.00 0.00 0.00 0.00 0.00 0.00 0.00 0.00 0.00 0.00 0.00 0.00 0.00 0.00 0.00 0.00 0.00 0.00 0.00 0.00 0.01 0.00 0.00 0.00 0.00 0.00 0.01 0.01 0.01 0.01 0.00 0.01 0.01 0.00 0.00 0.00 0.01
0.00 0.00 0.00 0.00 0.00 0.00 0.00 0.00 0.00 0.00 0.00 0.00 0.00 0.00 0.00 0.00 0.00 0.00 0.00 0.00 0.00 0.00 0.00 0.00 0.00 0.00 0.00 0.00 0.00 0.00 0.00 0.00 0.00 0.00 0.00 0.01 0.00 0.00 0.01 0.00 0.00 0.00 0.00

GFSMA_prec_precacc12_177.txt.gz
Total_Precipitation_Accumulation
0.00 0.00 0.00 0.00 0.00 0.00 0.00 0.00 0.00 0.00 0.00 0.00 0.00 0.00 0.00 0.00 0.00 0.00 0.00 0.00 0.00 0.00 0.00 0.00 0.02 0.05 0.07 0.07 0.07 0.06 0.06 0.04 0.02 0.02 0.03 0.02 0.00 0.00 0.00 0.00 0.00 0.00 0.02
0.00 0.00 0.00 0.00 0.00 0.00 0.00 0.00 0.00 0.00 0.00 0.00 0.00 0.00 0.00 0.00 0.00 0.00 0.00 0.00 0.00 0.00 0.00 0.00 0.01 0.04 0.05 0.07 0.04 0.04 0.06 0.06 0.05 0.04 0.03 0.01 0.01 0.00 0.00 0.00 0.00 0.00 0.00
0.00 0.00 0.00 0.00 0.00 0.00 0.00 0.00 0.00 0.00 0.00 0.00 0.00 0.00 0.00 0.00 0.00 0.00 0.00 0.00 0.00 0.00 0.00 0.00 0.00 0.01 0.04 0.03 0.03 0.02 0.03 0.02 0.02 0.05 0.04 0.01 0.01 0.03 0.01 0.00 0.00 0.00 0.01
0.00 0.00 0.00 0.00 0.00 0.00 0.00 0.00 0.00 0.00 0.00 0.00 0.00 0.00 0.00 0.00 0.00 0.00 0.00 0.00 0.00 0.00 0.00 0.00 0.00 0.00 0.00 0.02 0.05 0.05 0.03 0.02 0.02 0.02 0.06 0.06 0.03 0.04 0.06 0.03 0.00 0.00 0.01
0.00 0.00 0.00 0.00 0.00 0.00 0.00 0.00 0.00 0.00 0.00 0.00 0.00 0.00 0.00 0.00 0.00 0.00 0.00 0.00 0.00 0.00 0.00 0.00 0.00 0.00 0.01 0.01 0.03 0.05 0.08 0.12 0.07 0.05 0.05 0.09 0.11 0.11 0.12 0.11 0.09 0.04 0.01
0.00 0.00 0.00 0.00 0.00 0.00 0.00 0.00 0.00 0.00 0.00 0.00 0.00 0.00 0.00 0.00 0.00 0.00 0.00 0.00 0.00 0.00 0.00 0.00 0.00 0.00 0.01 0.03 0.05 0.06 0.08 0.09 0.11 0.10 0.09 0.08 0.11 0.17 0.17 0.17 0.19 0.17 0.07
0.00 0.00 0.00 0.00 0.00 0.00 0.00 0.00 0.00 0.00 0.00 0.00 0.00 0.00 0.00 0.00 0.00 0.00 0.00 0.00 0.00 0.00 0.00 0.00 0.00 0.00 0.02 0.07 0.07 0.07 0.07 0.07 0.09 0.14 0.12 0.11 0.16 0.19 0.21 0.25 0.25 0.23 0.18
0.00 0.00 0.00 0.00 0.00 0.00 0.00 0.00 0.00 0.00 0.00 0.00 0.00 0.00 0.00 0.00 0.00 0.00 0.00 0.00 0.00 0.00 0.00 0.00 0.01 0.02 0.02 0.02 0.04 0.03 0.05 0.09 0.11 0.16 0.24 0.26 0.18 0.20 0.21 0.33 0.30 0.24 0.20
0.00 0.00 0.00 0.00 0.00 0.00 0.00 0.00 0.00 0.00 0.00 0.00 0.00 0.01 0.02 0.01 0.00 0.00 0.00 0.00 0.00 0.00 0.00 0.01 0.01 0.02 0.01 0.01 0.02 0.01 0.02 0.03 0.08 0.14 0.35 0.48 0.43 0.35 0.36 0.40 0.38 0.34 0.26
0.00 0.00 0.00 0.00 0.00 0.00 0.00 0.00 0.00 0.00 0.00 0.00 0.00 0.00 0.01 0.03 0.03 0.01 0.00 0.00 0.00 0.00 0.01 0.01 0.01 0.01 0.01 0.01 0.01 0.02 0.03 0.02 0.02 0.08 0.28 0.85 1.13 1.30 1.43 1.31 0.87 0.50 0.37
0.00 0.00 0.00 0.00 0.00 0.00 0.00 0.00 0.00 0.00 0.00 0.00 0.01 0.01 0.00 0.00 0.03 0.04 0.01 0.00 0.00 0.00 0.02 0.03 0.03 0.02 0.01 0.01 0.01 0.02 0.02 0.02 0.02 0.06 0.16 0.49 0.76 0.95 1.22 1.74 1.79 1.28 0.80
0.00 0.00 0.00 0.00 0.00 0.00 0.00 0.00 0.00 0.00 0.00 0.00 0.00 0.00 0.01 0.02 0.02 0.03 0.02 0.00 0.00 0.00 0.06 0.05 0.03 0.03 0.02 0.02 0.05 0.05 0.02 0.02 0.03 0.03 0.04 0.20 0.29 0.36 0.44 0.52 0.82 1.06 0.84
0.00 0.00 0.00 0.00 0.00 0.00 0.00 0.00 0.00 0.00 0.00 0.00 0.00 0.01 0.01 0.02 0.03 0.04 0.04 0.02 0.01 0.01 0.06 0.06 0.04 0.04 0.05 0.04 0.06 0.08 0.04 0.03 0.03 0.04 0.04 0.04 0.04 0.04 0.10 0.18 0.25 0.30 0.26
0.00 0.00 0.00 0.00 0.00 0.00 0.00 0.00 0.00 0.00 0.00 0.00 0.00 0.00 0.01 0.01 0.02 0.04 0.06 0.06 0.03 0.03 0.08 0.09 0.07 0.06 0.08 0.09 0.11 0.10 0.05 0.07 0.04 0.03 0.03 0.04 0.06 0.07 0.10 0.12 0.14 0.18 0.26
0.00 0.00 0.00 0.00 0.00 0.00 0.00 0.00 0.00 0.00 0.00 0.00 0.00 0.00 0.00 0.01 0.01 0.03 0.06 0.07 0.10 0.06 0.06 0.05 0.08 0.07 0.08 0.08 0.11 0.05 0.03 0.08 0.06 0.06 0.05 0.06 0.06 0.07 0.11 0.17 0.18 0.24 0.29
0.00 0.00 0.00 0.00 0.00 0.00 0.00 0.00 0.00 0.00 0.00 0.00 0.00 0.00 0.00 0.00 0.00 0.01 0.04 0.06 0.08 0.10 0.13 0.09 0.10 0.10 0.07 0.05 0.10 0.05 0.05 0.05 0.06 0.05 0.07 0.12 0.13 0.11 0.11 0.12 0.26 0.34 0.31
0.00 0.00 0.00 0.00 0.00 0.00 0.00 0.00 0.00 0.00 0.00 0.00 0.00 0.00 0.00 0.00 0.00 0.00 0.01 0.03 0.06 0.09 0.15 0.10 0.08 0.11 0.09 0.08 0.08 0.05 0.04 0.02 0.03 0.05 0.06 0.11 0.19 0.22 0.22 0.22 0.20 0.29 0.50
0.00 0.00 0.00 0.00 0.00 0.00 0.00 0.00 0.00 0.00 0.00 0.00 0.00 0.00 0.00 0.00 0.00 0.00 0.00 0.01 0.03 0.07 0.09 0.09 0.08 0.09 0.11 0.10 0.11 0.09 0.07 0.05 0.05 0.05 0.04 0.06 0.11 0.22 0.35 0.39 0.40 0.37 0.28
0.00 0.00 0.00 0.00 0.00 0.00 0.00 0.00 0.00 0.00 0.00 0.00 0.00 0.00 0.00 0.00 0.00 0.00 0.00 0.00 0.01 0.01 0.03 0.06 0.07 0.07 0.07 0.07 0.07 0.08 0.08 0.06 0.05 0.04 0.02 0.03 0.05 0.08 0.17 0.32 0.45 0.48 0.50
0.00 0.00 0.00 0.00 0.00 0.00 0.00 0.00 0.00 0.00 0.00 0.00 0.00 0.00 0.00 0.00 0.00 0.00 0.00 0.00 0.00 0.00 0.00 0.01 0.02 0.02 0.04 0.05 0.05 0.06 0.06 0.07 0.07 0.06 0.06 0.04 0.03 0.04 0.06 0.09 0.15 0.26 0.34
0.00 0.00 0.00 0.00 0.00 0.00 0.00 0.00 0.00 0.00 0.00 0.00 0.00 0.00 0.00 0.00 0.00 0.00 0.00 0.00 0.00 0.00 0.00 0.00 0.00 0.00 0.01 0.02 0.05 0.07 0.07 0.10 0.08 0.06 0.07 0.07 0.07 0.03 0.04 0.04 0.04 0.05 0.09
0.00 0.00 0.00 0.00 0.00 0.00 0.00 0.00 0.00 0.00 0.00 0.00 0.00 0.00 0.00 0.00 0.00 0.00 0.00 0.00 0.00 0.00 0.00 0.00 0.00 0.00 0.01 0.01 0.02 0.04 0.03 0.03 0.02 0.02 0.05 0.06 0.06 0.07 0.07 0.09 0.05 0.04 0.03
0.00 0.00 0.00 0.00 0.00 0.00 0.00 0.00 0.00 0.00 0.00 0.00 0.00 0.00 0.00 0.00 0.00 0.00 0.00 0.00 0.00 0.00 0.00 0.00 0.01 0.02 0.01 0.01 0.01 0.01 0.01 0.01 0.03 0.04 0.03 0.03 0.04 0.04 0.04 0.05 0.04 0.04 0.04
0.00 0.00 0.00 0.00 0.00 0.00 0.00 0.00 0.00 0.00 0.00 0.00 0.00 0.00 0.00 0.00 0.00 0.00 0.00 0.00 0.00 0.00 0.00 0.00 0.00 0.01 0.00 0.00 0.00 0.01 0.01 0.01 0.00 0.00 0.00 0.00 0.00 0.01 0.01 0.01 0.01 0.02 0.01
0.00 0.00 0.00 0.00 0.00 0.00 0.00 0.00 0.00 0.00 0.00 0.00 0.00 0.00 0.00 0.00 0.00 0.00 0.00 0.00 0.00 0.00 0.00 0.00 0.00 0.00 0.00 0.00 0.00 0.00 0.00 0.00 0.01 0.00 0.01 0.01 0.00 0.00 0.01 0.01 0.00 0.00 0.00
0.00 0.00 0.00 0.00 0.00 0.00 0.00 0.00 0.00 0.00 0.00 0.00 0.00 0.00 0.00 0.00 0.00 0.00 0.00 0.00 0.00 0.00 0.00 0.00 0.00 0.00 0.00 0.00 0.00 0.00 0.00 0.00 0.00 0.00 0.00 0.01 0.00 0.00 0.01 0.00 0.00 0.00 0.00